When you browse on this site, cookies collect data to enhance your experience and personalize the content and advertising you see.
Visit our Privacy Policy to learn more. By continuing to use the site, you agree to this use of cookies and data.
  • In United Kingdom
  • List of Countries
  • For 7 days
  • Water Temperature
  • Satellite Maps
  • Weather Map
  • Weather Widgets
  • user-avatar
    Login

    Hourly Weather Istiqlol

    Today, 26 June, Wednesday

    Time Temperature Precipitation Wind Pressure Humidity
    00:00 +24°C° 0.1 mm 2 mps 677 mmHg 40%
    01:00 +24°C° 0.1 mm 2 mps 677 mmHg 41%
    02:00 +23°C° 0.1 mm 2 mps 676 mmHg 42%
    03:00 +23°C° 0.1 mm 2 mps 676 mmHg 42%
    04:00 +23°C° 0.1 mm 2 mps 676 mmHg 43%
    05:00 +21°C° 0.1 mm 2 mps 676 mmHg 43%
    06:00 +24°C° 0 mm 2 mps 677 mmHg 39%
    07:00 +27°C° 0 mm 1 mps 677 mmHg 34%
    08:00 +29°C° 0 mm 1 mps 677 mmHg 30%
    09:00 +30°C° 0 mm 1 mps 677 mmHg 28%
    10:00 +31°C° 0 mm 1 mps 677 mmHg 26%
    11:00 +32°C° 0 mm 2 mps 677 mmHg 25%
    12:00 +32°C° 0.1 mm 2 mps 677 mmHg 24%
    13:00 +34°C° 0.1 mm 2 mps 677 mmHg 23%
    14:00 +35°C° 0.1 mm 2 mps 677 mmHg 22%
    15:00 +34°C° 0.1 mm 2 mps 677 mmHg 23%
    16:00 +34°C° 0.1 mm 2 mps 676 mmHg 23%
    17:00 +34°C° 0.1 mm 2 mps 676 mmHg 24%
    18:00 +31°C° 0.3 mm 3 mps 676 mmHg 30%
    19:00 +29°C° 0.3 mm 4 mps 675 mmHg 36%
    20:00 +26°C° 0.3 mm 5 mps 675 mmHg 42%
    21:00 +26°C° 0.2 mm 5 mps 675 mmHg 41%
    22:00 +26°C° 0.2 mm 4 mps 675 mmHg 41%
    23:00 +25°C° 0.2 mm 4 mps 675 mmHg 40%

    Tomorrow, 27 June, Thursday

    Time Temperature Precipitation Wind Pressure Humidity
    00:00 +25°C° 0.2 mm 4 mps 674 mmHg 42%
    01:00 +24°C° 0.2 mm 3 mps 674 mmHg 43%
    02:00 +22°C° 0.2 mm 3 mps 674 mmHg 44%
    03:00 +22°C° 0.1 mm 3 mps 674 mmHg 45%
    04:00 +22°C° 0.1 mm 3 mps 673 mmHg 45%
    05:00 +23°C° 0.1 mm 2 mps 673 mmHg 45%
    06:00 +24°C° 0 mm 2 mps 674 mmHg 41%
    07:00 +26°C° 0 mm 1 mps 674 mmHg 37%
    08:00 +28°C° 0 mm 1 mps 675 mmHg 32%
    09:00 +29°C° 0 mm 1 mps 675 mmHg 31%
    10:00 +30°C° 0 mm 1 mps 675 mmHg 29%
    11:00 +31°C° 0 mm 1 mps 675 mmHg 27%
    12:00 +32°C° 0.1 mm 2 mps 675 mmHg 25%
    13:00 +34°C° 0.1 mm 2 mps 675 mmHg 22%
    14:00 +35°C° 0.1 mm 2 mps 675 mmHg 19%
    15:00 +34°C° 0.1 mm 2 mps 675 mmHg 20%
    16:00 +34°C° 0.1 mm 2 mps 675 mmHg 21%
    17:00 +34°C° 0.1 mm 2 mps 675 mmHg 21%
    18:00 +30°C° 0.4 mm 4 mps 674 mmHg 27%
    19:00 +28°C° 0.4 mm 5 mps 674 mmHg 33%
    20:00 +24°C° 0.4 mm 7 mps 674 mmHg 38%
    21:00 +24°C° 0 mm 6 mps 674 mmHg 39%
    22:00 +23°C° 0 mm 5 mps 674 mmHg 39%
    23:00 +23°C° 0 mm 4 mps 674 mmHg 40%

    Day after tomorrow, 28 June, Friday

    Time Temperature Precipitation Wind Pressure Humidity
    00:00 +24°C° 0 mm 3 mps 673 mmHg 39%
    01:00 +22°C° 0 mm 3 mps 673 mmHg 39%
    02:00 +23°C° 0 mm 2 mps 673 mmHg 38%
    03:00 +23°C° 0 mm 2 mps 673 mmHg 38%
    04:00 +23°C° 0 mm 2 mps 673 mmHg 39%
    05:00 +21°C° 0 mm 2 mps 673 mmHg 39%
    06:00 +24°C° 0 mm 2 mps 673 mmHg 36%
    07:00 +26°C° 0 mm 1 mps 674 mmHg 33%
    08:00 +28°C° 0 mm 1 mps 674 mmHg 30%
    09:00 +30°C° 0 mm 1 mps 674 mmHg 28%
    10:00 +31°C° 0 mm 1 mps 674 mmHg 26%
    11:00 +32°C° 0 mm 2 mps 674 mmHg 25%
    12:00 +33°C° 0.1 mm 1 mps 674 mmHg 23%
    13:00 +33°C° 0.1 mm 1 mps 674 mmHg 22%
    14:00 +34°C° 0.1 mm 1 mps 674 mmHg 20%
    15:00 +34°C° 0 mm 1 mps 674 mmHg 20%
    16:00 +34°C° 0 mm 1 mps 674 mmHg 20%
    17:00 +34°C° 0 mm 1 mps 674 mmHg 21%
    18:00 +32°C° 0 mm 2 mps 674 mmHg 25%
    19:00 +30°C° 0 mm 2 mps 673 mmHg 30%
    20:00 +28°C° 0 mm 3 mps 673 mmHg 35%
    21:00 +27°C° 0.2 mm 3 mps 674 mmHg 38%
    22:00 +26°C° 0.2 mm 4 mps 674 mmHg 40%
    23:00 +25°C° 0.2 mm 4 mps 674 mmHg 43%

    29 June, Saturday

    Time Temperature Precipitation Wind Pressure Humidity
    00:00 +25°C° 0.2 mm 4 mps 674 mmHg 44%
    01:00 +25°C° 0.2 mm 3 mps 673 mmHg 45%
    02:00 +24°C° 0.2 mm 3 mps 673 mmHg 46%
    03:00 +24°C° 0 mm 2 mps 673 mmHg 47%
    04:00 +23°C° 0 mm 2 mps 673 mmHg 49%
    05:00 +23°C° 0 mm 1 mps 673 mmHg 50%
    06:00 +24°C° 0 mm 1 mps 673 mmHg 44%
    07:00 +26°C° 0 mm 1 mps 674 mmHg 39%
    08:00 +28°C° 0 mm 2 mps 674 mmHg 33%
    09:00 +30°C° 0 mm 2 mps 674 mmHg 31%
    10:00 +31°C° 0 mm 2 mps 674 mmHg 28%
    11:00 +32°C° 0 mm 2 mps 674 mmHg 26%
    12:00 +34°C° 0 mm 2 mps 674 mmHg 24%
    13:00 +34°C° 0 mm 1 mps 674 mmHg 22%
    14:00 +35°C° 0 mm 1 mps 674 mmHg 20%
    15:00 +36°C° 0 mm 2 mps 674 mmHg 21%
    16:00 +36°C° 0 mm 2 mps 674 mmHg 22%
    17:00 +36°C° 0 mm 2 mps 674 mmHg 22%
    18:00 +34°C° 0 mm 2 mps 674 mmHg 26%
    19:00 +31°C° 0 mm 2 mps 674 mmHg 30%
    20:00 +29°C° 0 mm 2 mps 674 mmHg 35%
    21:00 +28°C° 0.1 mm 2 mps 674 mmHg 36%
    22:00 +27°C° 0.1 mm 2 mps 674 mmHg 38%
    23:00 +26°C° 0.1 mm 2 mps 674 mmHg 39%

    30 June, Sunday

    Time Temperature Precipitation Wind Pressure Humidity
    00:00 +26°C° 0 mm 2 mps 673 mmHg 40%
    01:00 +25°C° 0 mm 2 mps 673 mmHg 40%
    02:00 +25°C° 0 mm 2 mps 673 mmHg 40%
    03:00 +24°C° 0 mm 2 mps 673 mmHg 42%
    04:00 +24°C° 0 mm 2 mps 672 mmHg 44%
    05:00 +23°C° 0 mm 1 mps 672 mmHg 45%
    06:00 +25°C° 0 mm 1 mps 673 mmHg 40%
    07:00 +28°C° 0 mm 1 mps 673 mmHg 35%
    08:00 +30°C° 0 mm 1 mps 674 mmHg 30%
    09:00 +31°C° 0 mm 1 mps 674 mmHg 28%
    10:00 +33°C° 0 mm 1 mps 674 mmHg 26%
    11:00 +34°C° 0 mm 1 mps 674 mmHg 25%
    12:00 +36°C° 0 mm 2 mps 674 mmHg 23%
    13:00 +36°C° 0 mm 2 mps 674 mmHg 21%
    14:00 +37°C° 0 mm 2 mps 674 mmHg 19%
    15:00 +37°C° 0 mm 2 mps 674 mmHg 19%
    16:00 +37°C° 0 mm 2 mps 674 mmHg 20%
    17:00 +36°C° 0 mm 1 mps 674 mmHg 20%
    18:00 +34°C° 0 mm 1 mps 674 mmHg 24%
    19:00 +32°C° 0 mm 1 mps 674 mmHg 28%
    20:00 +30°C° 0 mm 1 mps 673 mmHg 33%
    21:00 +29°C° 0 mm 1 mps 673 mmHg 33%
    22:00 +28°C° 0 mm 1 mps 673 mmHg 34%
    23:00 +28°C° 0 mm 2 mps 673 mmHg 35%

    1 July, Monday

    Time Temperature Precipitation Wind Pressure Humidity
    00:00 +27°C° 0 mm 2 mps 673 mmHg 36%
    01:00 +27°C° 0 mm 2 mps 673 mmHg 36%
    02:00 +26°C° 0 mm 2 mps 673 mmHg 36%
    03:00 +26°C° 0 mm 2 mps 673 mmHg 37%
    04:00 +26°C° 0 mm 2 mps 673 mmHg 37%
    05:00 +25°C° 0 mm 2 mps 673 mmHg 37%
    06:00 +28°C° 0 mm 2 mps 673 mmHg 34%
    07:00 +30°C° 0 mm 1 mps 674 mmHg 30%
    08:00 +32°C° 0 mm 1 mps 674 mmHg 26%
    09:00 +33°C° 0 mm 1 mps 674 mmHg 24%
    10:00 +36°C° 0 mm 2 mps 674 mmHg 22%
    11:00 +37°C° 0 mm 2 mps 675 mmHg 20%
    12:00 +38°C° 0 mm 2 mps 675 mmHg 19%
    13:00 +38°C° 0 mm 3 mps 675 mmHg 18%
    14:00 +39°C° 0 mm 3 mps 675 mmHg 16%
    15:00 +40°C° 0 mm 4 mps 675 mmHg 17%
    16:00 +40°C° 0 mm 4 mps 675 mmHg 18%
    17:00 +39°C° 0 mm 5 mps 675 mmHg 18%
    18:00 +36°C° 0 mm 4 mps 674 mmHg 23%
    19:00 +33°C° 0 mm 3 mps 674 mmHg 28%
    20:00 +29°C° 0 mm 3 mps 674 mmHg 33%
    21:00 +29°C° 0 mm 3 mps 674 mmHg 33%
    22:00 +28°C° 0 mm 3 mps 674 mmHg 32%
    23:00 +28°C° 0 mm 3 mps 674 mmHg 31%
    Show more